[[{"header":{"parameterUnit":"m.s-1","parameterCategory":1,"la1":30.2991,"la2":30.254,"lo1":-89.0895,"lo2":-89.0444,"dy":0.0017,"dx":0.0017,"nx":28,"ny":28,"refTime":"2024-03-18T03:00:00:Z","depth":0,"parameterNumber":2,"parameterNumberName":"U-component_of_WINDS"},"data":[0,0,0,0,0,0,0,0,0,0,0,0,0,0,0,0,0,0,0,0,0,0,0,0,0,0,0,0,0,0,0,0,0,0,0,0,0,0,0,0,0,0,0,0,0,0,0,0,0,0,0,0,0,0,0,0,0,0,3.7036,3.7037,0,3.7102,3.7103,3.7104,3.7105,3.7104,3.7103,3.7102,3.7168,3.7171,3.7173,0,0,0,0,0,0,0,0,0,0,0,0,0,3.6912,3.6914,3.7036,3.7037,3.7038,3.7102,3.7103,3.7104,3.7105,3.7104,3.7103,3.7102,3.7167,3.717,3.7173,0,0,0,0,0,0,0,0,0,0,0,0,0,3.697,3.6915,3.7036,3.7046,3.7048,3.7102,3.7103,3.7104,3.7105,3.7104,3.7103,3.7102,3.7166,3.717,3.7174,3.7221,0,0,3.7185,3.7187,0,0,0,0,0,0,0,0,3.6967,3.6975,3.7044,3.7046,3.7048,3.7094,3.7083,3.7143,3.7106,3.7083,3.7102,3.7101,3.7144,3.715,3.7165,3.7224,3.7227,3.7186,3.7188,3.7189,3.719,0,0,0,0,0,0,0,3.6963,3.6972,3.7062,3.7045,3.7047,3.7048,3.7055,3.7094,3.712,3.7085,3.7085,3.7093,3.7145,3.7161,3.7166,3.7228,3.7185,3.7189,3.7191,3.7193,3.7332,3.7334,0,0,0,0,0,0,3.6957,3.6969,3.706,3.7064,3.7003,3.7051,3.7059,3.708,3.7119,3.7124,3.7094,3.7093,3.7155,3.7162,3.7169,3.7228,3.7189,3.7193,3.7195,3.7331,3.7333,3.7334,0,0,0,0,0,0,3.6954,3.6965,3.7057,3.7017,3.7028,3.7054,3.7079,3.7082,3.7098,3.7126,3.7131,3.7106,3.7155,3.7163,3.7209,3.723,3.7195,3.7198,3.7329,3.7332,3.7334,3.7347,0,0,0,0,0,0,3.6951,3.6964,3.6982,3.7017,3.7031,3.7096,3.708,3.7084,3.7105,3.7104,3.7139,3.7143,3.7154,3.7203,3.7213,3.7235,3.7201,3.7327,3.733,3.7333,3.7345,3.7349,3.7353,0,0,0,0,0,3.6946,3.6983,3.6983,3.6994,3.7054,3.7098,3.7105,3.7118,3.7107,3.7125,3.7144,3.7142,3.7227,3.7208,3.7218,3.7242,3.7326,3.7329,3.7333,3.7343,3.7348,3.7353,0,0,0,0,0,0,3.6948,3.6987,3.6988,3.7037,3.7064,3.7098,3.7121,3.7123,3.7154,3.7152,3.7166,3.7174,3.7219,3.7235,3.7214,3.7292,3.7275,3.7281,3.7279,3.7285,3.7289,3.7284,3.7204,0,0,0,0,0,3.6955,3.6987,3.7019,3.7059,3.7073,3.7095,3.7115,3.7122,3.7151,3.7162,3.7184,3.7211,3.7244,3.7265,3.7297,3.7347,3.7355,3.7369,3.7373,3.7377,3.7381,3.7411,3.7417,3.7345,3.7345,3.7345,0,0,3.6968,3.6993,3.7012,3.706,3.7082,3.7116,3.7105,3.714,3.7165,3.7167,3.7212,3.7229,3.7261,3.7309,3.7332,3.7324,3.7403,3.7381,3.7384,3.7386,3.7415,3.7421,3.7428,3.7347,3.7347,3.7347,0,0,3.7009,3.7031,3.7067,3.709,3.7124,3.7139,3.7148,3.7182,3.7194,3.7239,3.7242,3.7272,3.7328,3.7351,3.737,3.7423,3.7423,3.7433,3.7455,3.7484,3.7489,3.7494,3.7514,3.7521,3.7438,3.7438,3.7438,0,3.702,3.7071,3.7085,3.7122,3.7143,3.7148,3.7186,3.7207,3.7249,3.7264,3.7256,3.7328,3.7349,3.7404,3.7417,3.7432,3.7443,3.7429,3.7487,3.7493,3.7498,3.7516,3.7524,3.7439,3.7439,3.7438,3.7438,0,3.7084,3.712,3.7145,3.7188,3.7212,3.7248,3.7269,3.7292,3.7298,3.7314,3.7361,3.7388,3.7426,3.744,3.7445,3.7496,3.749,3.7484,3.7468,3.7505,3.7523,3.7531,3.744,3.744,3.7439,3.7439,0,0,3.7126,3.7178,3.7187,3.7207,3.7246,3.7274,3.7312,3.735,3.737,3.74,3.7432,3.7481,3.7476,3.7498,3.7507,3.7532,3.7573,3.7523,3.7524,3.7532,3.7632,3.7636,3.7644,3.7574,3.7575,3.7576,3.7629,0,3.7172,3.7239,3.7254,3.7312,3.7346,3.7352,3.7385,3.7413,3.743,3.7461,3.7479,3.7513,3.7505,3.7518,3.7543,3.7563,3.7593,3.7559,3.7604,3.7605,3.7595,3.7653,3.7657,3.7705,3.7636,3.7637,3.7638,0,3.7233,3.7266,3.7328,3.7364,3.7379,3.7408,3.7446,3.7475,3.7507,3.7518,3.7543,3.755,3.759,3.7573,3.7629,3.7605,3.7625,3.7637,3.764,3.7644,3.7623,3.7659,3.772,3.7728,3.7649,3.7648,3.7647,0,3.7259,3.7318,3.7363,3.738,3.7424,3.7444,3.7463,3.7494,3.7517,3.755,3.7565,3.7602,3.7622,3.765,3.7667,3.7653,3.7722,3.7706,3.7732,3.7732,3.7745,3.7744,3.7811,3.7758,3.7758,3.7758,3.7758,0,3.7308,3.7345,3.7375,3.7403,3.7446,3.7463,3.7505,3.7524,3.7552,3.7584,3.7592,3.7621,3.7642,3.7675,3.7688,3.7733,3.7742,3.7752,3.7755,3.7751,3.775,3.7763,3.776,3.776,3.776,3.7759,3.7759,0,3.7343,3.7364,3.7414,3.7452,3.7463,3.7492,3.7525,3.7552,3.757,3.761,3.7621,3.7648,3.7687,3.7708,3.7756,3.7765,3.7816,3.7817,3.7805,3.7806,3.7831,3.7829,3.7909,3.7921,3.786,3.7861,3.7861,0,3.7372,3.7402,3.7444,3.7466,3.7486,3.7521,3.7545,3.7564,3.7589,3.7629,3.7652,3.7692,3.7724,3.7787,3.7811,3.7849,3.7851,3.7877,3.7856,3.7852,3.7852,3.785,3.7853,3.788,3.788,3.7881,3.7881,0,3.7423,3.7433,3.7467,3.7506,3.7534,3.7565,3.7596,3.7614,3.7638,3.7666,3.7706,3.7732,3.7783,3.7822,3.7862,3.7882,3.7886,3.7888,3.7896,3.7892,3.7884,3.7889,3.7815,3.7885,3.7885,3.7885,3.7884,3.7884,3.7456,3.7483,3.7518,3.7556,3.7582,3.7611,3.7639,3.7661,3.7695,3.7739,3.7748,3.7791,3.7825,3.7879,3.79,3.7935,3.7929,3.7941,3.7944,3.7946,3.7948,3.7879,3.7942,3.7942,3.7942,3.7942,3.7942,0,3.7508,3.7531,3.7566,3.761,3.764,3.7643,3.7677,3.7703,3.7741,3.7772,3.7805,3.7853,3.7892,3.792,3.796,3.7982,3.7985,3.7992,3.799,3.7995,3.795,3.7939,3.7989,3.7989,3.7989,3.7989,3.7989,3.7989,3.7538,3.7584,3.7599,3.7658,3.7681,3.7724,3.7744,3.7771,3.7796,3.7849,3.7882,3.7901,3.7931,3.7974,3.801,3.8018,3.8032,3.8039,3.8046,3.8003,3.7998,3.7993,3.7983,3.8042,3.8042,3.8089,3.8089,3.809]},{"header":{"parameterUnit":"m.s-1","parameterCategory":1,"la1":30.2991,"la2":30.254,"lo1":-89.0895,"lo2":-89.0444,"dy":0.0017,"dx":0.0017,"nx":28,"ny":28,"refTime":"2024-03-18T03:00:00:Z","depth":0,"parameterNumber":3,"parameterNumberName":"V-component_of_WINDS"},"data":[0,0,0,0,0,0,0,0,0,0,0,0,0,0,0,0,0,0,0,0,0,0,0,0,0,0,0,0,0,0,0,0,0,0,0,0,0,0,0,0,0,0,0,0,0,0,0,0,0,0,0,0,0,0,0,0,0,0,-7.2853,-7.2853,0,-7.2899,-7.2899,-7.29,-7.2861,-7.2859,-7.2858,-7.2856,-7.2899,-7.2902,-7.2904,0,0,0,0,0,0,0,0,0,0,0,0,0,-7.2728,-7.2731,-7.2852,-7.2853,-7.2854,-7.2899,-7.2899,-7.29,-7.2861,-7.2859,-7.2857,-7.2855,-7.2898,-7.2901,-7.2904,0,0,0,0,0,0,0,0,0,0,0,0,0,-7.2779,-7.2731,-7.2852,-7.284,-7.2839,-7.2899,-7.2899,-7.29,-7.2861,-7.2859,-7.2857,-7.2854,-7.2897,-7.2901,-7.2905,-7.2978,0,0,-7.2917,-7.2919,0,0,0,0,0,0,0,0,-7.2776,-7.2784,-7.2841,-7.2841,-7.284,-7.2872,-7.2871,-7.2926,-7.2862,-7.2853,-7.2856,-7.2853,-7.2892,-7.2896,-7.291,-7.298,-7.2982,-7.2917,-7.292,-7.2922,-7.2923,0,0,0,0,0,0,0,-7.2773,-7.2781,-7.2871,-7.2842,-7.2841,-7.2831,-7.2836,-7.2881,-7.2885,-7.2853,-7.2851,-7.2857,-7.2891,-7.2906,-7.291,-7.2982,-7.2917,-7.2921,-7.2923,-7.2925,-7.3117,-7.3119,0,0,0,0,0,0,-7.2771,-7.2779,-7.2869,-7.2872,-7.2802,-7.2835,-7.284,-7.2864,-7.2885,-7.2885,-7.2859,-7.2855,-7.29,-7.2906,-7.2912,-7.3,-7.2922,-7.2925,-7.2928,-7.3114,-7.3117,-7.312,0,0,0,0,0,0,-7.2768,-7.2779,-7.2867,-7.2825,-7.2835,-7.284,-7.2867,-7.2866,-7.2881,-7.2889,-7.2889,-7.2874,-7.2899,-7.2906,-7.2962,-7.3,-7.2927,-7.2931,-7.3111,-7.3115,-7.3119,-7.3175,0,0,0,0,0,0,-7.2765,-7.2779,-7.2807,-7.2826,-7.2838,-7.2918,-7.2869,-7.2869,-7.2889,-7.2884,-7.2903,-7.2904,-7.2897,-7.2957,-7.2966,-7.3005,-7.2934,-7.3107,-7.3113,-7.3117,-7.317,-7.318,-7.319,0,0,0,0,0,-7.2761,-7.2819,-7.2808,-7.2819,-7.2873,-7.292,-7.2927,-7.292,-7.2892,-7.292,-7.2925,-7.2903,-7.2995,-7.2963,-7.2973,-7.3013,-7.3105,-7.3111,-7.3117,-7.3165,-7.3178,-7.3189,0,0,0,0,0,0,-7.2802,-7.2821,-7.2809,-7.2876,-7.2897,-7.2914,-7.2948,-7.2934,-7.2962,-7.2956,-7.2945,-7.2949,-7.3009,-7.3017,-7.298,-7.3086,-7.3045,-7.3054,-7.3078,-7.3091,-7.3101,-7.3097,-7.2937,0,0,0,0,0,-7.282,-7.2858,-7.2872,-7.2929,-7.2941,-7.2943,-7.2963,-7.2957,-7.2977,-7.2985,-7.2994,-7.3014,-7.3048,-7.307,-7.3101,-7.3171,-7.3175,-7.3204,-7.3214,-7.3222,-7.3229,-7.3268,-7.3282,-7.314,-7.314,-7.314,0,0,-7.2855,-7.287,-7.2894,-7.2938,-7.2954,-7.2993,-7.2951,-7.2993,-7.3022,-7.2991,-7.3045,-7.3053,-7.3075,-7.3139,-7.3167,-7.3147,-7.327,-7.323,-7.3236,-7.3239,-7.3276,-7.3289,-7.3301,-7.3144,-7.3143,-7.3143,0,0,-7.2939,-7.2955,-7.3005,-7.3022,-7.3047,-7.3049,-7.3062,-7.3081,-7.3086,-7.3141,-7.3119,-7.3153,-7.321,-7.3227,-7.3243,-7.3338,-7.3318,-7.3348,-7.34,-7.3438,-7.3449,-7.3459,-7.3493,-7.3505,-7.3355,-7.3356,-7.3356,0,-7.2979,-7.3038,-7.3032,-7.3078,-7.3098,-7.3075,-7.3126,-7.3142,-7.3175,-7.319,-7.3167,-7.3241,-7.3253,-7.3322,-7.3345,-7.3359,-7.3372,-7.3345,-7.3448,-7.3458,-7.3467,-7.3499,-7.3512,-7.3359,-7.3359,-7.3358,-7.3358,0,-7.3087,-7.3128,-7.3166,-7.3201,-7.3226,-7.3274,-7.3275,-7.33,-7.3292,-7.3296,-7.3353,-7.3368,-7.3403,-7.3419,-7.341,-7.3487,-7.3473,-7.345,-7.3409,-7.3484,-7.3514,-7.3527,-7.3364,-7.3363,-7.3362,-7.3361,0,0,-7.3196,-7.323,-7.3244,-7.3261,-7.3288,-7.3319,-7.3367,-7.3403,-7.3425,-7.3449,-7.3489,-7.354,-7.3519,-7.3537,-7.3531,-7.3565,-7.364,-7.3537,-7.3537,-7.3555,-7.3725,-7.3743,-7.3757,-7.3628,-7.363,-7.3632,-7.3724,0,-7.3282,-7.3365,-7.3363,-7.3441,-7.3479,-7.346,-7.3501,-7.3522,-7.3528,-7.3561,-7.3566,-7.3603,-7.3573,-7.3584,-7.3617,-7.3624,-7.3673,-7.3617,-7.3663,-7.3665,-7.3658,-7.3773,-7.379,-7.3876,-7.3735,-7.3737,-7.3739,0,-7.3392,-7.3423,-7.3506,-7.353,-7.3546,-7.3583,-7.3617,-7.3649,-7.3673,-7.3675,-7.3697,-7.3686,-7.3734,-7.3693,-7.3758,-7.372,-7.3739,-7.3746,-7.3749,-7.3752,-7.3706,-7.3779,-7.3903,-7.3916,-7.3757,-7.3756,-7.3754,0,-7.3464,-7.3526,-7.3584,-7.3599,-7.3628,-7.3655,-7.3668,-7.369,-7.3713,-7.3742,-7.3757,-7.3791,-7.3809,-7.3835,-7.3834,-7.3804,-7.3901,-7.3859,-7.3903,-7.3903,-7.3923,-7.3922,-7.4052,-7.3937,-7.3936,-7.3936,-7.3936,0,-7.356,-7.3611,-7.3617,-7.3652,-7.3709,-7.3706,-7.3763,-7.3773,-7.3793,-7.383,-7.3814,-7.3849,-7.3845,-7.388,-7.3879,-7.3934,-7.3942,-7.3945,-7.3944,-7.3946,-7.3946,-7.3957,-7.3951,-7.394,-7.3939,-7.3938,-7.3938,0,-7.3648,-7.3655,-7.3717,-7.3741,-7.3748,-7.3789,-7.3809,-7.3843,-7.3849,-7.3895,-7.3906,-7.3915,-7.3955,-7.3957,-7.4003,-7.4002,-7.4069,-7.4062,-7.4062,-7.406,-7.4104,-7.41,-7.4246,-7.4265,-7.4138,-7.4139,-7.414,0,-7.3709,-7.3748,-7.3777,-7.3802,-7.3818,-7.3857,-7.3881,-7.388,-7.3905,-7.3938,-7.3967,-7.4007,-7.4038,-7.4104,-7.4114,-7.4149,-7.4142,-7.4191,-7.4147,-7.4149,-7.4143,-7.414,-7.4144,-7.4199,-7.42,-7.4202,-7.4203,0,-7.3815,-7.3817,-7.3853,-7.3891,-7.3921,-7.395,-7.3977,-7.3998,-7.4,-7.4029,-7.4072,-7.4097,-7.4146,-7.4185,-7.422,-7.4232,-7.4218,-7.4217,-7.4229,-7.4231,-7.4229,-7.4231,-7.4085,-7.4213,-7.4212,-7.4211,-7.4211,-7.421,-7.3891,-7.3926,-7.3953,-7.3994,-7.4015,-7.4042,-7.4075,-7.4087,-7.4123,-7.4163,-7.4161,-7.4208,-7.4233,-7.4279,-7.4295,-7.4331,-7.4314,-7.4331,-7.4336,-7.434,-7.4345,-7.4225,-7.4337,-7.4337,-7.4337,-7.4336,-7.4336,0,-7.3997,-7.4014,-7.4052,-7.4092,-7.4125,-7.4111,-7.4141,-7.4169,-7.4212,-7.4237,-7.4269,-7.4319,-7.4358,-7.4372,-7.441,-7.4436,-7.4431,-7.4446,-7.4444,-7.4447,-7.4357,-7.4343,-7.445,-7.445,-7.445,-7.445,-7.445,-7.445,-7.4055,-7.4114,-7.412,-7.4189,-7.4206,-7.4254,-7.4272,-7.4297,-7.4317,-7.4374,-7.4407,-7.4417,-7.4438,-7.4478,-7.4513,-7.4516,-7.453,-7.4549,-7.4549,-7.4465,-7.4453,-7.4442,-7.4429,-7.4552,-7.4552,-7.4636,-7.4637,-7.4637]}]]